This demonstration page uses our WeatherBlox Daily Observations layout. Learn more.

Left ArrowRight Arrow

39.51506, -84.39828

Hourly Observations for May 21, 2020

Temp ( °F °C ) Dew Point ( °F °C ) Humidity (%) Winds ( mph kmh ) Pressure ( in mb ) Visibility ( mi km ) Precip ( " mm )
12:15 am 00:15 Cloudy 54 12.4 51 10.6 89 89 E 9 15 30.14 1021 10 16.0934 0 0
12:35 am 00:35 Cloudy 54 12.4 51 10.5 88 88 E 13 20 30.14 1021 10 16.0934 0 0
12:55 am 00:55 Cloudy 54 12.3 51 10.5 89 89 E 9 15 30.13 1020 10 16.0934 0 0
1:15 am 01:15 Cloudy with Rain 54 12 51 10.7 92 92 E 12 19 30.13 1020 10 16.0934 0 0
1:35 am 01:35 Cloudy with Light Rain 53 11.9 52 11 94 94 E 12 19 30.12 1020 10 16.0934 0 0
1:55 am 01:55 Cloudy 53 11.9 51 10.8 93 93 E 10 17 30.12 1020 10 16.0934 0 0
2:15 am 02:15 Cloudy 53 11.9 51 10.8 93 93 E 9 15 30.11 1020 10 16.0934 0 0
2:35 am 02:35 Cloudy 53 11.9 52 10.9 94 94 E 8 13 30.11 1020 10 16.0934 0 0
2:55 am 02:55 Cloudy 54 12 52 11 94 94 E 13 20 30.1 1019 10 16.0934 0 0
3:15 am 03:15 Cloudy 54 12.1 52 11 93 93 E 12 19 30.1 1019 10 16.0934 0 0
3:35 am 03:35 Cloudy 54 12.2 51 10.8 91 91 E 12 19 30.1 1019 10 16.0934 0 0
3:55 am 03:55 Cloudy 54 12.3 51 10.8 91 91 E 12 19 30.1 1019 10 16.0934 0 0
4:15 am 04:15 Cloudy 54 12.2 51 10.7 91 91 E 8 13 30.09 1019 10 16.0934 0 0
4:35 am 04:35 Cloudy 54 12.3 51 10.7 90 90 E 9 15 30.09 1019 10 16.0934 0 0
4:55 am 04:55 Cloudy 54 12.3 51 10.7 90 90 E 7 11 30.09 1019 10 16.0934 0 0
5:15 am 05:15 Cloudy 54 12.3 51 10.8 91 91 E 9 15 30.09 1019 10 16.0934 0 0
5:35 am 05:35 Cloudy 54 12.3 51 10.8 91 91 E 7 11 30.09 1019 10 16.0934 0 0
5:55 am 05:55 Cloudy 54 12.3 51 10.8 91 91 ESE 9 15 30.09 1019 10 16.0934 0 0
6:15 am 06:15 Cloudy 54 12.4 51 10.7 89 89 E 7 11 30.1 1019 10 16.0934 0 0
6:35 am 06:35 Cloudy 54 12.3 51 10.8 91 91 E 8 13 30.11 1020 10 16.0934 0 0
6:55 am 06:55 Cloudy 54 12.2 51 10.7 91 91 E 9 15 30.11 1020 10 16.0934 0 0
7:15 am 07:15 Cloudy 54 12.2 51 10.8 91 91 E 8 13 30.12 1020 10 16.0934 0 0
7:35 am 07:35 Cloudy 54 12.2 52 10.9 92 92 E 8 13 30.12 1020 10 16.0934 0 0
7:55 am 07:55 Cloudy 54 12.3 52 10.9 91 91 E 9 15 30.12 1020 10 16.0934 0 0
8:15 am 08:15 Cloudy 55 12.6 52 11.1 91 91 E 8 13 30.12 1020 10 16.0934 0 0
8:35 am 08:35 Cloudy 55 13 52 11.2 89 89 E 10 17 30.13 1020 10 16.0934 0 0
8:55 am 08:55 Cloudy 56 13.4 52 11.3 87 87 E 7 11 30.13 1020 10 16.0934 0 0
9:15 am 09:15 Cloudy 56 13.5 52 11.3 87 87 E 8 13 30.13 1020 10 16.0934 0 0
9:35 am 09:35 Cloudy 57 13.9 53 11.4 85 85 E 8 13 30.13 1020 10 16.0934 0 0
9:55 am 09:55 Cloudy 58 14.3 53 11.5 83 83 E 8 13 30.13 1020 10 16.0934 0 0
10:15 am 10:15 Cloudy 59 14.8 53 11.8 82 82 E 9 15 30.13 1020 10 16.0934 0 0
10:35 am 10:35 Cloudy 59 15.1 53 11.9 81 81 ESE 8 13 30.13 1020 10 16.0934 0 0
10:55 am 10:55 Partly Cloudy 60 15.3 54 12.1 81 81 E 10 17 30.12 1020 10 16.0934 0 0
11:15 am 11:15 Cloudy 60 15.6 54 12 79 79 ESE 12 19 30.13 1020 10 16.0934 0 0
11:35 am 11:35 Cloudy 60 15.8 54 12.4 80 80 ESE 9 15 30.12 1020 10 16.0934 0 0
11:55 am 11:55 Cloudy 60 15.3 54 12.3 82 82 SE 12 19 30.13 1020 10 16.0934 0 0
12:15 pm 12:15 Cloudy 59 15.2 54 12.4 84 84 ESE 12 19 30.14 1021 10 16.0934 0 0
12:35 pm 12:35 Cloudy 59 15.2 55 12.5 84 84 ESE 6 9 30.13 1020 10 16.0934 0 0
12:55 pm 12:55 Cloudy with Rain 58 14.7 56 13.2 91 91 ESE 8 13 30.13 1020 7 11.26538 0 0
1:15 pm 13:15 Cloudy with Light Rain 59 15 57 13.8 93 93 E 12 19 30.12 1020 10 16.0934 0 0
1:35 pm 13:35 Cloudy 59 15.1 56 13.5 90 90 E 9 15 30.1 1019 10 16.0934 0 0
1:55 pm 13:55 Cloudy 60 15.6 57 13.7 89 89 E 9 15 30.11 1019 10 16.0934 0 0
2:15 pm 14:15 Cloudy 60 15.6 56 13.5 87 87 SE 12 19 30.11 1019 10 16.0934 0 0
2:35 pm 14:35 Cloudy 61 16.1 57 13.9 87 87 ESE 9 15 30.09 1019 10 16.0934 0 0
2:55 pm 14:55 Cloudy 60 15.8 56 13.5 86 86 ESE 13 20 30.09 1019 10 16.0934 0 0
3:15 pm 15:15 Cloudy 60 15.7 56 13.6 87 87 E 9 15 30.08 1019 10 16.0934 0 0
3:35 pm 15:35 Cloudy with Light Rain 60 15.6 57 13.8 89 89 E 10 17 30.09 1019 10 16.0934 0 0
3:55 pm 15:55 Cloudy 61 16 58 14.2 89 89 SE 6 9 30.08 1019 10 16.0934 0 0
4:55 pm 16:55 Cloudy 61 16.2 57 14 87 87 SE 9 15 30.06 1018 10 16.0934 0 0
5:15 pm 17:15 Cloudy 62 16.4 57 14 86 86 ESE 6 9 30.06 1018 10 16.0934 0 0
5:35 pm 17:35 Cloudy 62 16.7 57 14 84 84 SE 7 11 30.06 1018 10 16.0934 0 0
5:55 pm 17:55 Cloudy 62 16.9 58 14.2 84 84 SE 8 13 30.06 1018 10 16.0934 0 0
6:15 pm 18:15 Cloudy 63 17 57 14.1 83 83 SE 9 15 30.06 1018 10 16.0934 0 0
6:35 pm 18:35 Cloudy 62 16.9 57 14 83 83 S 9 15 30.06 1018 10 16.0934 0 0
6:55 pm 18:55 Cloudy 62 16.6 58 14.2 86 86 SSE 6 9 30.06 1018 10 16.0934 0 0
7:15 pm 19:15 Cloudy 61 16.3 58 14.5 89 89 SE 5 7 30.06 1018 10 16.0934 0 0
7:35 pm 19:35 Cloudy 61 16.3 58 14.5 89 89 Calm 30.06 1018 10 16.0934 0 0
7:55 pm 19:55 Cloudy 61 16.3 58 14.4 89 89 ESE 5 7 30.06 1018 10 16.0934 0 0
8:15 pm 20:15 Cloudy 61 16.3 58 14.2 87 87 ESE 3 6 30.07 1018 10 16.0934 0 0
8:35 pm 20:35 Cloudy with Mist and Fog 61 16.2 58 14.3 89 89 ESE 3 6 30.07 1018 5 8.0467 0 0
8:55 pm 20:55 Cloudy 61 16.1 58 14.4 90 90 Calm 30.07 1018 10 16.0934 0 0
9:15 pm 21:15 Cloudy with Mist and Fog 60 15.7 58 14.4 92 92 Calm 30.06 1018 7 11.26538 0 0
9:35 pm 21:35 Cloudy 60 15.8 58 14.6 93 93 E 3 6 30.07 1018 10 16.0934 0 0
9:55 pm 21:55 Cloudy 60 15.5 59 14.8 96 96 E 3 6 30.08 1018 10 16.0934 0 0
10:15 pm 22:15 Cloudy 60 15.4 59 14.9 97 97 Calm 30.09 1019 7 11.26538 0 0
10:35 pm 22:35 Cloudy with Rain 59 15.2 59 15 99 99 Calm 30.09 1019 1.75 2.816345 0 0
10:55 pm 22:55 Cloudy with Drizzle 59 15.1 59 15 99 99 Calm 30.08 1018 2 3.21868 0 0
11:15 pm 23:15 Cloudy with Mist and Fog 59 15.1 59 15.1 100 100 Calm 30.09 1019 4 6.43736 0 0
11:35 pm 23:35 Cloudy with Mist and Fog 59 15.2 59 15.2 100 100 Calm 30.08 1018 1.75 2.816345 0 0
11:55 pm 23:55 Cloudy with Mist and Fog 59 15.2 59 15.2 100 100 Calm 30.08 1018 3.5 5.63269 0 0

Powered by AerisWeather